カタログに戻る

YAM-15

運用中通信SSO
NORAD 68997·PAYLOAD·🇮🇳 India

打ち上げ May 3, 2026 から Vandenberg Space Force Base

Loading…

次のパス (今後24時間)

TLE

最新Source: Space-Track

元期: Sep 14, 2026, 22:57 UTC

1 68997U 26100T   26257.95653695  .00001229  00000-0  13176-3 0  9993
2 68997  97.7764 153.9169 0001933  82.8122 277.3316 14.90430650 20074

AllMySatでYAM-15をリアルタイム追跡

Download on the App Store